Back to catalog

STARLINK-37067

AliveCommunicationsVLEO
NORAD 68086·PAYLOAD·🇺🇸 United States

Launched Mar 4, 2026 from Vandenberg Space Force Base

Loading…

Next Passes (next 24 hours)

TLE

FreshSource: CelesTrak SupGP

Epoch: Sep 15, 2026, 02:56 UTC

1 68086C 26042T   26258.12270833  .00050182  00000+0  14831-2 0  2583
2 68086  53.1595  13.0695 0001143  93.5806  94.1137 15.34356098    12

Track STARLINK-37067 in real time with AllMySat

Download on the App Store